TimeMST,TemperatureF,Dew PointF,Humidity,Sea Level PressureIn,VisibilityMPH,Wind Direction,Wind SpeedMPH,Gust SpeedMPH,PrecipitationIn,Events,Conditions,WindDirDegrees,DateUTC
12:54 AM,46.9,17.1,30,30.06,10.0,South,4.6,-,N/A,,Clear,170,2013-03-03 07:54:00
1:54 AM,43.0,19.0,38,30.06,10.0,East,4.6,-,N/A,,Clear,90,2013-03-03 08:54:00
2:54 AM,45.0,18.0,34,30.03,10.0,Calm,Calm,-,N/A,,Clear,0,2013-03-03 09:54:00
3:54 AM,39.9,19.0,43,30.02,10.0,Calm,Calm,-,N/A,,Clear,0,2013-03-03 10:54:00
4:54 AM,37.9,19.9,48,30.02,10.0,ENE,4.6,-,N/A,,Clear,60,2013-03-03 11:54:00
5:54 AM,39.0,19.9,46,30.03,10.0,SSE,3.5,-,N/A,,Clear,160,2013-03-03 12:54:00
6:54 AM,39.9,19.0,43,30.05,10.0,SE,3.5,-,N/A,,Clear,130,2013-03-03 13:54:00
7:54 AM,44.6,21.2,39,30.15,10.0,Calm,Calm,-,N/A,,Clear,0,2013-03-03 14:54:00
8:54 AM,53.1,21.9,30,30.07,10.0,Calm,Calm,-,N/A,,Clear,0,2013-03-03 15:54:00
9:54 AM,66.0,18.0,16,30.03,10.0,South,3.5,-,N/A,,Clear,170,2013-03-03 16:54:00
10:54 AM,72.0,5.0,7,30.01,10.0,SSW,3.5,-,N/A,,Clear,200,2013-03-03 17:54:00
11:54 AM,75.0,1.9,6,29.98,10.0,West,6.9,-,N/A,,Clear,270,2013-03-03 18:54:00
12:54 PM,79.0,-18.9,4,29.95,10.0,West,12.7,20.7,N/A,,Clear,260,2013-03-03 19:54:00
1:54 PM,78.1,-6.0,4,29.94,10.0,West,15.0,23.0,N/A,,Clear,270,2013-03-03 20:54:00
2:54 PM,77.0,-9.9,4,29.93,10.0,West,11.5,20.7,N/A,,Clear,270,2013-03-03 21:54:00
3:54 PM,75.0,-11.0,4,29.94,10.0,West,12.7,23.0,N/A,,Clear,260,2013-03-03 22:54:00
4:54 PM,73.9,-18.0,4,29.94,10.0,West,6.9,-,N/A,,Clear,260,2013-03-03 23:54:00
5:54 PM,72.0,-14.1,4,29.94,10.0,WSW,8.1,-,N/A,,Clear,250,2013-03-04 00:54:00
6:54 PM,68.0,9.0,10,29.95,10.0,Calm,Calm,-,N/A,,Clear,0,2013-03-04 01:54:00
7:54 PM,64.0,10.9,13,29.96,10.0,Calm,Calm,-,N/A,,Clear,0,2013-03-04 02:54:00
8:54 PM,57.9,17.1,20,29.96,10.0,NE,3.5,-,N/A,,Clear,40,2013-03-04 03:54:00
9:54 PM,61.0,16.0,17,29.91,10.0,Calm,Calm,-,N/A,,Clear,0,2013-03-04 04:54:00
10:54 PM,62.1,15.1,16,29.88,10.0,SE,6.9,-,N/A,,Overcast,130,2013-03-04 05:54:00
11:54 PM,57.9,17.1,20,29.87,10.0,South,5.8,-,N/A,,Overcast,180,2013-03-04 06:54:00